Torna al catalogo

STARLINK-4131

AttivoComunicazioniVLEO
NORAD 53246·PAYLOAD·🇺🇸 United States

Lanciato Jul 24, 2022 da Cape Canaveral Space Force Station

Loading…

Prossimi Passaggi (prossime 24 ore)

TLE

AggiornatoSource: CelesTrak SupGP

Epoca: Sep 15, 2026, 02:39 UTC

1 53246C 22086E   26258.11090278 -.00033667  00000+0 -10828-2 0  2584
2 53246  53.1576  61.9231 0001111  88.5294  95.7772 15.31714460    11

Traccia STARLINK-4131 in tempo reale con AllMySat

Download on the App Store